Location: ?
(35.4554°N, 139.3092°E)
Time: 22:24:16
(UTC+00:00)

IDEFIX/ARIANE 42P - Pass Details

Date: 21 April 2021
Orbit: 785 x 802 km, 98.4° (Epoch: 10 May)

Event Time Altitude Azimuth Distance (km) Brightness Sun altitude
Rises 16:59:53 0° 19° (NNE) 3,294 6.7 -32.3°
Reaches altitude 10° 17:02:18 10° 25° (NNE) 2,364 5.8 -31.9°
Enters shadow 17:06:56 48° 84° (E) 1,033 3.3 -31.3°
